Weather Roundup
Issued by NWS Springfield, MO

Home | Current Version | Previous Version | Text Only | Print | Product List | Glossary On
Versions: 1 2 3 4 5 6 7 8 9 10 11 12 13 14 15 16 17 18 19 20 21 22 23 24 25 26 27 28 29 30 31 32 33 34 35 36 37 38 39 40 41 42 43 44 45 46 47 48 49 50
000
NZUS99 KSGF 230707
HRRSGF

HOURLY WEATHER
NATIONAL WEATHER SERVICE SPRINGFIELD MO
200 AM CDT SAT AUG 23 2014

......SGF CWA......

CITY           SKY/WX    TMP DP  RH WIND       PRES   REMARKS
SPRINGFIELD    CLEAR     77  71  82 S8        29.99S
JOPLIN         CLEAR     81  71  71 S12       29.97R
WEST PLAINS    CLEAR     78  70  76 SW5       30.02S
ROLLA          CLEAR     77  69  76 SW9       29.96S
OSAGE BEACH    CLEAR     79  70  73 CALM      29.96F
BRANSON        CLEAR     79  73  83 S6        30.02S

......SURROUNDING SGF CWA......

CITY           SKY/WX    TMP DP  RH WIND       PRES   REMARKS
CHANUTE        CLEAR     80  70  71 S10       29.93S
PARSONS        CLEAR     79  70  74 S6        29.94F
COFFEYVILLE    CLEAR     80  71  74 S12       29.93S
EMPORIA        CLEAR     76  71  85 S13       29.90F
GROVE OK       CLEAR     79  73  83 S5        29.98S
ROGERS AR      CLEAR     79  71  76 S8        30.02F
SILOAM SPRINGS CLEAR     75  66  73 S5        30.02S
HARRISON AR    CLEAR     78  73  84 S6        30.02F
NEAR YELLVILLE CLEAR     79  70  73 S5        29.99S

......KANSAS AND MISSOURI......

CITY           SKY/WX    TMP DP  RH WIND       PRES   REMARKS
KANSAS CTY INT MOCLDY    78  69  73 SE8       29.91F
DOWNTOWN KC    CLEAR     81  70  69 CALM      29.90F
COLUMBIA       CLEAR     79  76  90 NW3       29.94F
SEDALIA        CLEAR     76  72  87 S6        29.95F
ST JOSEPH      PTCLDY    80  77  90 SE8       29.89F
ST LOUIS       MOCLDY    81  77  88 E3        29.94S
SPIRIT OF STL  PTCLDY    78  76  93 CALM      29.92S
KIRKSVILLE     CLEAR     77  75  93 SE6       29.94F
WICHITA        PTCLDY    81  64  56 S13       29.90R
TOPEKA         CLEAR     78  73  84 CALM      29.89S
OLATHE         CLEAR     75  70  84 S5        29.92S

......TENNESSEE......

CITY           SKY/WX    TMP DP  RH WIND       PRES   REMARKS
MEMPHIS        CLEAR     80  72  76 SW6       29.99F
NASHVILLE      PTCLDY    77  74  90 CALM      30.01F

......ARKANSAS.......

CITY           SKY/WX    TMP DP  RH WIND       PRES   REMARKS
FAYETTEVILLE   CLEAR     75  73  93 CALM      30.02S
FT SMITH       CLEAR     79  75  87 CALM      29.97S
LITTLE ROCK    CLEAR     79  73  82 S5        29.99S

......OKLAHOMA.......

CITY           SKY/WX    TMP DP  RH WIND       PRES   REMARKS
TULSA          CLEAR     83  70  64 S9        29.93S
PONCA CITY     CLEAR     83  62  49 S8        29.91S
MCALESTER      CLEAR     80  69  69 S5        29.98R
OKLAHOMA CITY  CLEAR     77  61  57 S10       29.95R

......IOWA............

CITY           SKY/WX    TMP DP  RH WIND       PRES   REMARKS
DES MOINES     PTCLDY    78  75  90 E5        29.93S
QUAD CITIES    CLOUDY    75  73  93 CALM      29.94R

......ILLINOIS........

CITY           SKY/WX    TMP DP  RH WIND       PRES   REMARKS
QUINCY         PTCLDY    77  75  93 SE5       29.93F
CHICAGO        CLOUDY    76  70  82 N5        29.97R



USA.gov is the U.S. government's official web portal to all federal, state and local government web resources and services.